Tracking 22458 objects as of 2-Mar-2021
HD Live streaming from Space Station
objects crossing your sky now

SL-8 DEB *

Track SL-8 DEB * now!
10-day predictions


NORAD ID: 13029
Int'l Code: 1982-001C
Perigee: 689.9 km
Apogee: 701.6 km
Inclination: 74.0 °
Period: 98.5 minutes
Semi major axis: 7066 km
RCS: 0.0057 m2 (small)
Launch date: January 7, 1982
Source: Commonwealth of Independent States (former USSR) (CIS)
Launch site: PLESETSK MISSILE AND SPACE COMPLEX (PKMTR)

Note: This is SATELLITE DEBRIS
aabbcc
Your satellite tracking list
Your tracking list is empty




NASA's NSSDC Master Catalog

Two Line Element Set (TLE):
1 13029U 82001C   21060.74778803  .00000375  00000-0  81836-4 0  9994
2 13029  73.9713 231.8180 0008257  38.7887 332.9925 14.61406879 12566
Source of the keplerian elements: AFSPC